Location: DARK SKY Beskydy - Park tmavé oblohy, www.darkskybeskydy.cz
(49.4926°N, 18.5016°E)
Time: 09:13:54
(UTC+01:00)

BlueWalker 3 - Pass Details

Date: 02 December 2022
Orbit: 499 x 517 km, 53.2° (Epoch: 29 January)

Event Time Altitude Azimuth Distance (km) Brightness Sun altitude
Rises 16:55:32 0° 268° (W) 2,630 7.1 -10.4°
Reaches altitude 10° 16:57:47 10° 274° (W) 1,740 5.8 -10.7°
Maximum altitude 17:01:38 51° 351° (N) 648 2.4 -11.3°
Enters shadow 17:04:21 18° 63° (ENE) 1,310 3.4 -11.7°
